Вернуться в каталог

STARLINK-11470

АктивенСвязьVLEO
NORAD 62062·PAYLOAD·🇺🇸 United States

Запущен Nov 24, 2024 с Vandenberg Space Force Base

Loading…

Ближайшие Пролёты (ближайшие 24 часа)

TLE

СвежийSource: CelesTrak SupGP

Эпоха: Sep 15, 2026, 03:34 UTC

1 62062C 24217F   26258.14909722 -.00104620  00000+0 -86147-3 0  2580
2 62062  53.1572 217.3055 0001172  86.6873 143.8172 15.69769475    19

Отслеживайте STARLINK-11470 в реальном времени с AllMySat

Download on the App Store